TimeEDT,TemperatureF,Dew PointF,Humidity,Sea Level PressureIn,VisibilityMPH,Wind Direction,Wind SpeedMPH,Gust SpeedMPH,PrecipitationIn,Events,Conditions,WindDirDegrees,DateUTC
12:25 AM,45.3,-9999,N/A,29.61,-9999.0,Variable,2.3,-,0.03,,Unknown,0,2012-10-11 04:25:00
1:26 AM,44.8,-9999,N/A,29.59,-9999.0,Variable,5.8,11.5,0.01,,Unknown,0,2012-10-11 05:26:00
2:25 AM,43.0,-9999,N/A,29.59,-9999.0,Variable,5.8,15.0,N/A,,Unknown,0,2012-10-11 06:25:00
3:25 AM,41.5,-9999,N/A,29.59,-9999.0,Variable,4.6,12.7,N/A,,Unknown,0,2012-10-11 07:25:00
4:25 AM,40.1,-9999,N/A,29.60,-9999.0,SW,8.1,17.3,0.03,,Unknown,230,2012-10-11 08:25:00
5:25 AM,38.7,37.4,95,29.63,-9999.0,Variable,5.8,15.0,0.00,,Unknown,0,2012-10-11 09:25:00
6:25 AM,36.9,-9999,N/A,29.65,-9999.0,Variable,2.3,-,N/A,,Unknown,0,2012-10-11 10:25:00
7:25 AM,37.4,-9999,N/A,29.68,-9999.0,Variable,4.6,13.8,0.01,,Unknown,0,2012-10-11 11:25:00
8:25 AM,38.3,-9999,N/A,29.71,-9999.0,Variable,4.6,15.0,0.03,,Unknown,0,2012-10-11 12:25:00
9:25 AM,39.2,35.8,88,29.74,-9999.0,Variable,5.8,25.3,N/A,,Unknown,0,2012-10-11 13:25:00
10:25 AM,40.1,32.9,75,29.78,-9999.0,WSW,11.5,27.6,0.01,,Unknown,250,2012-10-11 14:25:00
11:25 AM,40.1,30.2,68,29.81,-9999.0,Variable,3.5,19.6,0.00,,Unknown,0,2012-10-11 15:25:00
12:25 PM,41.2,32.5,71,29.83,-9999.0,WSW,9.2,20.7,N/A,,Unknown,240,2012-10-11 16:25:00
1:26 PM,40.1,28.2,63,29.85,-9999.0,SW,9.2,25.3,N/A,,Unknown,230,2012-10-11 17:26:00
2:25 PM,42.4,26.1,52,29.86,-9999.0,SW,10.4,28.8,0.00,,Unknown,230,2012-10-11 18:25:00
3:25 PM,43.2,24.8,48,29.89,-9999.0,WSW,9.2,20.7,0.00,,Unknown,250,2012-10-11 19:25:00
4:25 PM,43.3,25.5,49,29.92,-9999.0,WSW,8.1,16.1,N/A,,Unknown,250,2012-10-11 20:25:00
5:25 PM,40.6,24.1,52,29.94,-9999.0,Variable,5.8,18.4,N/A,,Unknown,0,2012-10-11 21:25:00
6:28 PM,38.1,25.3,60,29.96,-9999.0,Calm,Calm,-,N/A,,Unknown,0,2012-10-11 22:28:00
7:25 PM,32.2,28.2,85,29.98,-9999.0,Calm,Calm,-,N/A,,Unknown,0,2012-10-11 23:25:00
8:25 PM,30.4,27.5,89,29.99,-9999.0,Calm,Calm,-,0.00,,Unknown,0,2012-10-12 00:25:00
9:25 PM,-9999,-9999,N/A,29.99,-9999.0,Calm,Calm,-,N/A,,Unknown,0,2012-10-12 01:25:00
10:25 PM,-9999,-9999,N/A,29.98,-9999.0,Calm,Calm,-,N/A,,Unknown,0,2012-10-12 02:25:00
11:27 PM,-9999,-9999,N/A,29.96,-9999.0,Calm,Calm,-,N/A,,Unknown,0,2012-10-12 03:27:00